SR8WXB-1 Weather Reports


time (UTC)temp
F
wind
direction
speed
knots
gust
knots
rain 1hr
in
rain 24hr
in
rain mn
in
humidity
%
barometer
mb
20260507015807 59 239 12.2 15.6 0.00 0.00 0.00 100 938.3
20260507015356 59 235 11.3 16.5 0.00 0.00 0.00 100 938.3
20260507014956 59 233 13.0 17.4 0.00 0.00 0.00 100 938.3
20260507014553 59 232 15.6 19.1 0.00 0.00 0.00 100 938.3
20260507014153 59 231 17.4 20.9 0.00 0.00 0.00 100 938.2
20260507013753 59 231 17.4 20.9 0.00 0.00 0.00 100 938.2
20260507013353 60 233 18.2 24.3 0.00 0.00 0.00 100 938.1
20260507012954 60 235 19.1 23.5 0.00 0.00 0.00 100 938.0
20260507012551 60 239 21.7 29.5 0.00 0.00 0.00 100 937.9
20260507012151 60 239 21.7 26.1 0.00 0.00 0.00 100 938.0
20260507011751 60 239 20.9 26.1 0.00 0.00 0.00 100 938.0
20260507011351 60 241 24.3 29.5 0.00 0.00 0.00 100 938.0
20260507010951 60 232 20.0 26.9 0.00 0.00 0.00 100 938.0
20260507010548 61 240 19.1 26.1 0.00 0.00 0.00 100 938.1
20260507010148 61 243 22.6 26.9 0.00 0.00 0.00 100 938.1
20260507005748 61 243 20.9 24.3 0.00 0.00 0.00 100 938.2
20260507005348 61 240 20.9 29.5 0.00 0.00 0.00 100 938.2
20260507004948 61 242 20.9 24.3 0.00 0.00 0.00 100 938.2
20260507004545 61 243 20.9 26.9 0.00 0.00 0.00 100 938.2
20260507004145 61 240 20.0 26.9 0.00 0.00 0.00 100 938.2
20260507003745 61 237 19.1 24.3 0.00 0.00 0.00 100 938.2
20260507002945 61 238 19.1 24.3 0.00 0.00 0.00 100 938.1
20260507002542 61 237 17.4 24.3 0.00 0.00 0.00 100 938.1
20260507002142 61 236 15.6 19.1 0.00 0.00 0.00 100 938.2
20260507001742 61 236 15.6 20.0 0.00 0.00 0.00 100 938.1
20260507001342 61 240 15.6 20.9 0.00 0.00 0.00 100 938.1
20260507000942 61 239 16.5 20.0 0.00 0.00 0.00 100 938.1
20260507000539 61 237 17.4 21.7 0.00 0.00 0.00 100 938.1
20260507000140 61 234 14.8 19.1 0.00 0.00 0.00 100 938.1
20260506235736 61 238 15.6 19.1 0.00 0.00 0.00 100 938.1
20260506235336 61 240 14.8 18.2 0.00 0.00 0.00 100 938.2
20260506234936 62 237 15.6 19.1 0.00 0.00 0.00 100 938.2
20260506234533 62 238 15.6 19.1 0.00 0.00 0.00 100 938.2
20260506234133 61 238 20.0 24.3 0.00 0.00 0.00 100 938.3
20260506233733 61 243 18.2 26.1 0.00 0.00 0.00 100 938.2
20260506233333 61 244 16.5 21.7 0.00 0.00 0.00 100 938.3
20260506232933 61 237 16.5 21.7 0.00 0.00 0.00 100 938.3
20260506232530 61 236 17.4 26.1 0.00 0.00 0.00 100 938.2
20260506232130 61 234 13.9 17.4 0.00 0.00 0.00 100 938.2
20260506231722 61 235 13.9 19.1 0.00 0.00 0.00 100 938.2
20260506231322 61 237 14.8 20.0 0.00 0.00 0.00 100 938.2
20260506230922 61 237 13.9 20.0 0.00 0.00 0.00 100 938.2
20260506230519 61 237 14.8 18.2 0.00 0.00 0.00 100 938.3
20260506230119 61 238 16.5 19.1 0.00 0.00 0.00 100 938.3
20260506225719 62 233 16.5 20.9 0.00 0.00 0.00 100 938.3
20260506225318 62 236 16.5 20.0 0.00 0.00 0.00 100 938.3
20260506224918 62 243 18.2 22.6 0.00 0.00 0.00 100 938.3
20260506224515 62 243 19.1 23.5 0.00 0.00 0.00 100 938.3
20260506224115 62 244 22.6 27.8 0.00 0.00 0.00 100 938.3
20260506223715 62 243 24.3 28.7 0.00 0.00 0.00 100 938.3
20260506223315 62 243 24.3 31.3 0.00 0.00 0.00 100 938.2
20260506222915 61 245 25.2 31.3 0.00 0.00 0.00 100 938.3
20260506222512 61 243 20.9 30.4 0.00 0.00 0.00 100 938.1
20260506222112 62 245 23.5 30.4 0.00 0.00 0.00 100 938.1
20260506221712 62 244 24.3 31.3 0.00 0.00 0.00 100 938.1
20260506221312 62 248 24.3 31.3 0.00 0.00 0.00 100 938.1
20260506220912 62 247 27.8 35.6 0.00 0.00 0.00 100 938.1
20260506220509 61 243 24.3 27.8 0.00 0.00 0.00 100 938.1
20260506220109 61 244 24.3 26.9 0.00 0.00 0.00 100 938.1
20260506215709 61 243 24.3 26.9 0.00 0.00 0.00 100 938.1
20260506215306 61 243 23.5 29.5 0.00 0.00 0.00 100 938.1
20260506214906 61 243 23.5 29.5 0.00 0.00 0.00 100 938.1
20260506214503 61 244 22.6 26.9 0.00 0.00 0.00 100 938.0
20260506214103 61 245 24.3 32.2 0.00 0.00 0.00 100 938.1
20260506213703 61 247 22.6 30.4 0.00 0.00 0.00 100 938.1
20260506213303 61 247 24.3 35.6 0.00 0.00 0.00 100 938.0
20260506212903 61 245 25.2 33.0 0.00 0.00 0.00 100 938.0
20260506212500 61 245 20.0 26.9 0.00 0.00 0.00 100 938.1
20260506212100 61 244 17.4 26.1 0.00 0.00 0.00 100 938.1
20260506211700 61 244 18.2 25.2 0.00 0.00 0.00 100 938.1
20260506211301 61 245 23.5 32.2 0.00 0.00 0.00 100 938.1
20260506210901 61 243 20.9 25.2 0.00 0.00 0.00 100 938.1
20260506210458 61 240 17.4 21.7 0.00 0.00 0.00 100 938.1
20260506210058 61 236 15.6 20.0 0.00 0.00 0.00 100 938.1
20260506205658 61 240 17.4 26.9 0.00 0.00 0.00 100 938.1
20260506205258 61 236 12.2 16.5 0.00 0.00 0.00 100 938.1
20260506204858 61 238 15.6 21.7 0.00 0.00 0.00 100 938.0
20260506204444 61 238 19.1 25.2 0.00 0.00 0.00 100 938.0
20260506204044 61 241 20.0 29.5 0.00 0.00 0.00 100 938.0
20260506203244 61 239 13.9 19.1 0.00 0.00 0.00 100 938.0
20260506202844 61 242 21.7 30.4 0.00 0.00 0.00 100 938.0
20260506202441 61 245 18.2 22.6 0.00 0.00 0.00 100 938.0
20260506202041 61 241 13.9 18.2 0.00 0.00 0.00 100 938.0
20260506201641 61 243 19.1 25.2 0.00 0.00 0.00 100 938.0
20260506201241 61 238 15.6 19.1 0.00 0.00 0.00 100 938.0
20260506200841 61 236 13.9 19.1 0.00 0.00 0.00 100 938.0
20260506200438 61 238 15.6 20.0 0.00 0.00 0.00 100 938.0
20260506200038 61 238 15.6 18.2 0.00 0.00 0.00 100 938.0
20260506195638 61 238 14.8 18.2 0.00 0.00 0.00 100 938.0
20260506195238 61 240 14.8 22.6 0.00 0.00 0.00 100 938.1
20260506194835 61 235 13.0 21.7 0.00 0.00 0.00 100 938.1
20260506194432 61 236 12.2 17.4 0.00 0.00 0.00 100 938.1
20260506194032 61 240 16.5 22.6 0.00 0.00 0.00 100 938.1
20260506193632 61 238 15.6 23.5 0.00 0.00 0.00 100 938.1
20260506193232 61 237 13.9 19.1 0.00 0.00 0.00 100 938.1
20260506192832 61 238 15.6 19.1 0.00 0.00 0.00 100 938.1
20260506192429 61 238 10.4 13.9 0.00 0.00 0.00 100 938.1
20260506192029 62 238 12.2 18.2 0.00 0.00 0.00 100 938.1
20260506191629 62 237 14.8 23.5 0.00 0.00 0.00 100 938.1
20260506191229 61 239 11.3 15.6 0.00 0.00 0.00 100 938.2
20260506190829 61 238 8.7 13.9 0.00 0.00 0.00 100 938.1
20260506190426 61 238 10.4 15.6 0.00 0.00 0.00 100 938.1
20260506190026 61 240 10.4 13.9 0.00 0.00 0.00 100 938.1
20260506185626 61 238 9.6 14.8 0.00 0.00 0.00 100 938.1
20260506185227 61 238 10.4 16.5 0.00 0.00 0.00 100 938.1
20260506184827 61 238 9.6 14.8 0.00 0.00 0.00 100 938.1
20260506184424 62 239 11.3 17.4 0.00 0.00 0.00 100 938.1
20260506184024 62 238 13.9 19.1 0.00 0.00 0.00 100 938.0
20260506183624 62 238 12.2 18.2 0.00 0.00 0.00 100 938.0
20260506183224 62 238 12.2 15.6 0.00 0.00 0.00 100 938.0
20260506182823 62 238 13.0 16.5 0.00 0.00 0.00 100 938.0
20260506182420 62 237 15.6 21.7 0.00 0.00 0.00 100 938.0
20260506182020 62 237 17.4 21.7 0.00 0.00 0.00 100 938.0
20260506181620 62 238 14.8 19.1 0.00 0.00 0.00 100 937.9
20260506181220 63 239 15.6 20.0 0.00 0.00 0.00 100 937.9
20260506180812 63 243 19.1 24.3 0.00 0.00 0.00 100 937.9
20260506180409 62 238 15.6 21.7 0.00 0.00 0.00 100 937.9
20260506180009 62 237 17.4 26.9 0.00 0.00 0.00 100 937.8
20260506175209 63 241 18.2 23.5 0.00 0.00 0.00 100 937.8
20260506174809 63 238 19.1 25.2 0.00 0.00 0.00 100 937.8
20260506174402 63 241 17.4 23.5 0.00 0.00 0.00 100 937.8
20260506174002 63 239 17.4 29.5 0.00 0.00 0.00 100 937.8
20260506173602 63 242 19.1 26.1 0.00 0.00 0.00 100 937.9
20260506173202 63 243 20.0 26.9 0.00 0.00 0.00 100 937.9
20260506172802 64 244 18.2 24.3 0.00 0.00 0.00 100 937.9
20260506172400 64 243 17.4 20.9 0.00 0.00 0.00 100 938.0
20260506172000 64 244 21.7 28.7 0.00 0.00 0.00 100 938.0
20260506171600 64 245 19.1 23.5 0.00 0.00 0.00 100 937.9
20260506171200 64 246 20.9 26.9 0.00 0.00 0.00 100 938.0
20260506170800 65 247 23.5 28.7 0.00 0.00 0.00 100 938.0
20260506170357 65 251 20.9 33.0 0.00 0.00 0.00 100 938.0
20260506165957 65 245 22.6 32.2 0.00 0.00 0.00 100 938.0
20260506165557 65 244 24.3 30.4 0.00 0.00 0.00 100 938.0
20260506165157 65 246 26.9 35.6 0.00 0.00 0.00 100 937.9
20260506164757 66 245 23.5 33.0 0.00 0.00 0.00 100 937.9
20260506164354 66 247 20.9 28.7 0.00 0.00 0.00 100 937.8
20260506163954 66 245 23.5 33.9 0.00 0.00 0.00 100 937.7
20260506163554 67 247 24.3 33.9 0.00 0.00 0.00 100 937.8
20260506163155 67 246 26.1 30.4 0.00 0.00 0.00 100 937.8
20260506162754 67 248 24.3 33.9 0.00 0.00 0.00 100 937.8
20260506162351 67 250 21.7 32.2 0.00 0.00 0.00 100 937.7
20260506161951 67 247 20.0 25.2 0.00 0.00 0.00 100 937.7
20260506161551 67 249 20.9 27.8 0.00 0.00 0.00 100 937.7
20260506161151 67 244 24.3 31.3 0.00 0.00 0.00 100 937.8
20260506160752 67 245 26.1 34.8 0.00 0.00 0.00 100 937.8
20260506160349 67 247 23.5 29.5 0.00 0.00 0.00 100 937.8
20260506155949 67 247 20.9 26.1 0.00 0.00 0.00 100 937.8
20260506155549 67 248 20.9 26.1 0.00 0.00 0.00 100 937.8
20260506155149 67 246 22.6 28.7 0.00 0.00 0.00 100 937.9
20260506154748 67 249 20.9 26.1 0.00 0.00 0.00 100 937.9
20260506154345 67 250 26.1 33.0 0.00 0.00 0.00 100 937.9
20260506153942 67 248 24.3 33.9 0.00 0.00 0.00 100 937.9
20260506153542 67 248 21.7 27.8 0.00 0.00 0.00 100 937.9
20260506153131 68 249 26.1 34.8 0.00 0.00 0.00 100 937.9
20260506152731 68 250 26.1 38.2 0.00 0.00 0.00 100 937.8
20260506152328 68 248 25.2 35.6 0.00 0.00 0.00 100 937.9
20260506151928 68 247 27.8 33.9 0.00 0.00 0.00 100 937.9
20260506151528 68 248 26.1 35.6 0.00 0.00 0.00 100 937.9
20260506151128 68 246 26.1 33.0 0.00 0.00 0.00 100 938.0
20260506150728 68 245 22.6 31.3 0.00 0.00 0.00 100 938.0
20260506150325 69 246 24.3 39.1 0.00 0.00 0.00 100 938.0
20260506145925 69 247 28.7 39.1 0.00 0.00 0.00 100 938.1
20260506145525 69 248 26.1 35.6 0.00 0.00 0.00 100 938.2
20260506145125 68 248 29.5 38.2 0.00 0.00 0.00 100 938.1
20260506144725 68 246 25.2 38.2 0.00 0.00 0.00 100 938.2
20260506144322 67 248 27.8 38.2 0.00 0.00 0.00 100 938.1
20260506143922 68 247 24.3 34.8 0.00 0.00 0.00 100 938.3
20260506143523 68 248 29.5 40.0 0.00 0.00 0.00 100 938.3
20260506143122 69 249 28.7 34.8 0.00 0.00 0.00 100 938.2
20260506142723 69 250 33.0 41.7 0.00 0.00 0.00 100 938.2
20260506142320 70 248 30.4 39.1 0.00 0.00 0.00 100 938.2
20260506141920 70 248 33.0 45.2 0.00 0.00 0.00 100 938.2
20260506141520 70 249 33.9 43.4 0.00 0.00 0.00 100 938.2
20260506140720 70 251 26.1 34.8 0.00 0.00 0.00 100 938.2
20260506140317 70 255 26.1 32.2 0.00 0.00 0.00 100 938.2
20260506135916 71 249 27.8 34.8 0.00 0.00 0.00 100 938.2
20260506135516 71 253 27.8 34.8 0.00 0.00 0.00 100 938.2
20260506135116 71 245 22.6 29.5 0.00 0.00 0.00 100 938.2
20260506134716 71 246 22.6 31.3 0.00 0.00 0.00 100 938.2
20260506134314 71 246 22.6 27.8 0.00 0.00 0.00 100 938.3
20260506133914 71 249 22.6 29.5 0.00 0.00 0.00 100 938.3
20260506133510 71 250 26.1 31.3 0.00 0.00 0.00 100 938.3
20260506133110 71 250 20.0 26.1 0.00 0.00 0.00 100 938.3
20260506132710 70 248 22.6 31.3 0.00 0.00 0.00 100 938.3
20260506132308 70 245 22.6 28.7 0.00 0.00 0.00 100 938.4
20260506131908 70 245 22.6 33.9 0.00 0.00 0.00 100 938.3
20260506131508 70 244 19.1 27.8 0.00 0.00 0.00 100 938.4
20260506131108 70 248 24.3 34.8 0.00 0.00 0.00 100 938.4
20260506130708 70 247 25.2 31.3 0.00 0.00 0.00 100 938.4
20260506130305 70 251 23.5 29.5 0.00 0.00 0.00 100 938.4
20260506125905 70 249 25.2 40.0 0.00 0.00 0.00 100 938.5
20260506125456 70 244 28.7 40.0 0.00 0.00 0.00 100 938.5
20260506125056 70 248 26.1 34.8 0.00 0.00 0.00 100 938.5
20260506124656 69 246 23.5 33.0 0.00 0.00 0.00 100 938.5
20260506124254 69 245 23.5 33.9 0.00 0.00 0.00 100 938.5
20260506123854 69 245 25.2 41.7 0.00 0.00 0.00 100 938.5
20260506123454 69 243 24.3 34.8 0.00 0.00 0.00 100 938.5
20260506123054 69 247 26.9 34.8 0.00 0.00 0.00 100 938.5
20260506122654 68 246 31.3 40.0 0.00 0.00 0.00 100 938.4
20260506122251 69 248 34.8 45.2 0.00 0.00 0.00 100 938.5
20260506121851 69 244 33.0 43.4 0.00 0.00 0.00 100 938.5
20260506121451 69 241 23.5 34.8 0.00 0.00 0.00 100 938.6
20260506121051 69 246 28.7 35.6 0.00 0.00 0.00 100 938.6
20260506120651 69 249 29.5 35.6 0.00 0.00 0.00 100 938.5
20260506120248 69 249 32.2 38.2 0.00 0.00 0.00 100 938.5
20260506115848 69 248 31.3 37.4 0.00 0.00 0.00 100 938.6
20260506115448 69 248 29.5 39.1 0.00 0.00 0.00 100 938.6
20260506114648 68 251 31.3 40.0 0.00 0.00 0.00 100 938.7
20260506114245 69 250 26.1 33.0 0.00 0.00 0.00 100 938.7
20260506113845 69 251 27.8 33.9 0.00 0.00 0.00 100 938.6
20260506113445 69 245 29.5 35.6 0.00 0.00 0.00 100 938.6
20260506113042 70 248 28.7 34.8 0.00 0.00 0.00 100 938.6
20260506112642 70 244 25.2 37.4 0.00 0.00 0.00 100 938.8
20260506112239 69 243 19.1 26.9 0.00 0.00 0.00 100 938.8
20260506111839 68 245 20.9 30.4 0.00 0.00 0.00 100 938.8
20260506111439 68 247 27.8 38.2 0.00 0.00 0.00 100 938.8
20260506111039 68 249 24.3 33.0 0.00 0.00 0.00 100 938.8
20260506110639 67 245 26.1 34.8 0.00 0.00 0.00 100 938.8
20260506110236 66 245 25.2 34.8 0.00 0.00 0.00 100 938.8
20260506105836 66 243 30.4 38.2 0.00 0.00 0.00 100 938.7
20260506105436 66 245 31.3 40.0 0.00 0.00 0.00 100 938.6
20260506105036 66 241 33.9 46.9 0.00 0.00 0.00 100 938.7
20260506104636 66 247 33.0 42.6 0.00 0.00 0.00 100 938.6
20260506104233 66 246 38.2 53.9 0.00 0.00 0.00 100 938.8
20260506103834 67 245 26.9 40.8 0.00 0.00 0.00 100 938.8
20260506103434 67 247 27.8 37.4 0.00 0.00 0.00 100 938.9
20260506103034 66 248 26.1 33.0 0.00 0.00 0.00 100 938.9
20260506102634 66 247 26.1 36.5 0.00 0.00 0.00 100 939.0
20260506102220 66 243 23.5 40.0 0.00 0.00 0.00 100 938.9
20260506101819 66 244 25.2 36.5 0.00 0.00 0.00 100 938.9
20260506101020 65 246 31.3 46.9 0.00 0.00 0.00 100 938.9
20260506100620 65 248 26.1 35.6 0.00 0.00 0.00 100 938.8
20260506100217 65 248 31.3 40.8 0.00 0.00 0.00 100 938.9
20260506095817 65 249 26.9 35.6 0.00 0.00 0.00 100 938.9
20260506095417 65 246 21.7 30.4 0.00 0.00 0.00 100 938.9
20260506095017 65 247 23.5 34.8 0.00 0.00 0.00 100 938.9
20260506094617 66 247 27.8 36.5 0.00 0.00 0.00 100 938.9
20260506094214 66 244 24.3 34.8 0.00 0.00 0.00 100 938.9
20260506093813 67 248 20.9 25.2 0.00 0.00 0.00 100 938.9
20260506093414 67 248 23.5 28.7 0.00 0.00 0.00 100 939.0
20260506093014 67 250 27.8 33.9 0.00 0.00 0.00 100 938.9
20260506092610 66 248 26.9 33.0 0.00 0.00 0.00 100 938.9
20260506092208 66 250 25.2 30.4 0.00 0.00 0.00 100 938.9
20260506091808 67 250 28.7 40.0 0.00 0.00 0.00 100 938.9
20260506091408 67 245 31.3 46.1 0.00 0.00 0.00 100 938.8
20260506091008 67 254 26.1 37.4 0.00 0.00 0.00 100 938.7
20260506090608 67 247 24.3 32.2 0.00 0.00 0.00 100 938.8
20260506090205 67 244 23.5 34.8 0.00 0.00 0.00 100 938.8
20260506085805 66 243 20.0 29.5 0.00 0.00 0.00 100 938.8
20260506085405 66 248 24.3 35.6 0.00 0.00 0.00 100 938.7
20260506085005 66 248 23.5 36.5 0.00 0.00 0.00 100 938.8
20260506084605 66 243 21.7 39.1 0.00 0.00 0.00 100 938.7
20260506084202 65 242 21.7 31.3 0.00 0.00 0.00 100 938.8
20260506083802 65 243 20.9 26.9 0.00 0.00 0.00 100 938.7
20260506083402 64 243 20.0 27.8 0.00 0.00 0.00 100 938.7
20260506083002 64 241 19.1 24.3 0.00 0.00 0.00 100 938.7
20260506082602 64 244 20.0 28.7 0.00 0.00 0.00 100 938.6
20260506082159 64 245 22.6 36.5 0.00 0.00 0.00 100 938.7
20260506081759 65 242 20.0 27.8 0.00 0.00 0.00 100 938.5
20260506081359 65 242 19.1 25.2 0.00 0.00 0.00 100 938.6
20260506081000 64 243 20.0 26.1 0.00 0.00 0.00 100 938.5
20260506080559 64 244 23.5 31.3 0.00 0.00 0.00 100 938.5
20260506080156 64 243 18.2 25.2 0.00 0.00 0.00 100 938.5
20260506072945 65 239 18.2 26.9 0.00 0.00 0.00 100 938.3
20260506072545 64 239 14.8 22.6 0.00 0.00 0.00 100 938.3
20260506072138 64 238 17.4 23.5 0.00 0.00 0.00 100 938.3
20260506071738 65 242 20.0 26.1 0.00 0.00 0.00 100 938.3
20260506071338 64 242 17.4 23.5 0.00 0.00 0.00 100 938.3
20260506070938 64 241 17.4 26.1 0.00 0.00 0.00 100 938.3
20260506070538 64 242 17.4 24.3 0.00 0.00 0.00 100 938.3
20260506070135 64 241 16.5 24.3 0.00 0.00 0.00 100 938.2
20260506062130 62 239 13.9 20.0 0.00 0.00 0.00 100 938.2
20260506061730 62 243 17.4 25.2 0.00 0.00 0.00 100 938.1
20260506061330 62 243 16.5 24.3 0.00 0.00 0.00 100 938.1
20260506060930 62 243 15.6 21.7 0.00 0.00 0.00 100 938.1
20260506060530 62 240 15.6 24.3 0.00 0.00 0.00 100 938.1
20260506060127 62 240 16.5 23.5 0.00 0.00 0.00 100 938.1
20260506051318 60 239 11.3 17.4 0.00 0.00 0.00 100 938.1
20260506050906 60 233 10.4 15.6 0.00 0.00 0.00 100 938.0
20260506050507 59 232 8.7 13.9 0.00 0.00 0.00 100 938.0
20260506050104 59 231 9.6 15.6 0.00 0.00 0.00 100 938.1
20260506044904 58 231 7.8 13.0 0.00 0.00 0.00 100 938.1
20260506044504 58 230 7.0 12.2 0.00 0.00 0.00 100 938.0
20260506044101 58 228 9.6 12.2 0.00 0.00 0.00 100 938.0
20260506043701 58 229 9.6 12.2 0.00 0.00 0.00 100 938.0
20260506043301 58 227 8.7 11.3 0.00 0.00 0.00 100 938.0
20260506042901 58 227 10.4 13.0 0.00 0.00 0.00 100 938.0
20260506042501 58 228 13.9 15.6 0.00 0.00 0.00 100 938.0
20260506042058 58 229 13.9 16.5 0.00 0.00 0.00 100 938.0
20260506041658 58 230 13.9 18.2 0.00 0.00 0.00 100 938.0
20260506041258 58 231 13.0 14.8 0.00 0.00 0.00 100 938.0
20260506040858 57 230 13.9 16.5 0.00 0.00 0.00 100 938.0
20260506040458 57 230 14.8 17.4 0.00 0.00 0.00 100 938.0
20260506040055 57 230 13.0 17.4 0.00 0.00 0.00 100 938.0
20260506035656 57 230 14.8 16.5 0.00 0.00 0.00 100 938.0
20260506035256 58 234 14.8 17.4 0.00 0.00 0.00 100 938.0
20260506034456 58 240 15.6 17.4 0.00 0.00 0.00 100 938.0
20260506034053 58 239 15.6 18.2 0.00 0.00 0.00 100 938.0
20260506033652 58 237 16.5 20.0 0.00 0.00 0.00 100 938.0
20260506033252 58 230 17.4 21.7 0.00 0.00 0.00 100 937.9
20260506032852 57 231 16.5 19.1 0.00 0.00 0.00 100 937.9
20260506032452 57 231 15.6 20.9 0.00 0.00 0.00 100 937.9
20260506032049 57 232 15.6 18.2 0.00 0.00 0.00 100 938.0
20260506031650 56 221 13.9 15.6 0.00 0.00 0.00 100 937.9
20260506031246 56 221 13.9 15.6 0.00 0.00 0.00 100 938.0
20260506030846 56 221 13.9 15.6 0.00 0.00 0.00 100 938.0
20260506030446 57 221 10.4 13.9 0.00 0.00 0.00 100 937.9
20260506030043 57 226 12.2 15.6 0.00 0.00 0.00 100 937.9
20260506025643 57 227 10.4 13.9 0.00 0.00 0.00 100 937.9
20260506025243 57 225 10.4 13.0 0.00 0.00 0.00 100 937.9
20260506024843 57 222 8.7 13.0 0.00 0.00 0.00 100 937.9
20260506024444 57 228 10.4 12.2 0.00 0.00 0.00 100 937.8
20260506024041 57 227 10.4 14.8 0.00 0.00 0.00 100 937.9
20260506023641 58 235 11.3 13.0 0.00 0.00 0.00 100 937.9
20260506023232 58 233 13.9 16.5 0.00 0.00 0.00 100 937.9
20260506022832 58 236 12.2 15.6 0.00 0.00 0.00 100 937.9
20260506022432 59 237 12.2 18.2 0.00 0.00 0.00 100 937.9
20260506022029 59 236 11.3 16.5 0.00 0.00 0.00 100 937.9
20260506021629 59 235 12.2 16.5 0.00 0.00 0.00 100 937.9
20260506021229 58 237 12.2 17.4 0.00 0.00 0.00 100 937.9
20260506020829 58 237 10.4 19.1 0.00 0.00 0.00 100 937.9
20260506020430 58 233 13.9 20.0 0.00 0.00 0.00 100 937.9
20260506020027 58 234 17.4 19.1 0.00 0.00 0.00 100 937.9